Regional Weather Roundup
Issued by NWS Sioux Falls, SD

Home | Current Version | Previous Version | Graphics & Text | Print | Product List | Glossary Off
Versions: 1 2 3 4 5 6 7 8 9 10 11 12 13 14 15 16 17 18 19 20 21 22 23 24 25 26 27 28 29 30 31 32 33 34 35 36 37 38 39 40 41 42 43 44 45 46 47 48 49 50

000
ASUS43 KFSD 191502
RWRFSD

WEATHER ROUNDUP FOR SE SOUTH DAKOTA/SW MINNESOTA/NW IOWA
NATIONAL WEATHER SERVICE SIOUX FALLS SD
1000 AM CDT THU OCT 19 2017

NOTE: "FAIR" INDICATES FEW OR NO CLOUDS BELOW 12,000 FEET WITH NO
SIGNIFICANT WEATHER AND OR OBSTRUCTIONS TO VISIBILITY.


SDZ038>040-050-052>070-191600-
SOUTHEAST SOUTH DAKOTA

CITY           SKY/WX    TMP DP  RH WIND       PRES   REMARKS
BROOKINGS      MOSUNNY   51  34  52 S15       30.02R
CHAMBERLAIN    SUNNY     61  40  46 S12G21    29.94F
HURON          SUNNY     50  35  56 S10       29.96S
MADISON        FAIR      52  36  54 S15       30.02S
MITCHELL       SUNNY     51  37  58 S15       29.99F
SIOUX FALLS    MOSUNNY   56  36  47 S10       30.04S
WINNER         FAIR      57  38  48 S26G36    29.92F
YANKTON        SUNNY     49  40  71 CALM      30.04S
$$

MNZ071-072-080-081-089-090-097-098-191600-
SOUTHWEST MINNESOTA

CITY           SKY/WX    TMP DP  RH WIND       PRES   REMARKS
FAIRMONT       CLOUDY    52  34  50 S13       30.10R
JACKSON        SUNNY     52  32  46 S14       30.09R
MARSHALL       CLOUDY    56  33  42 S15       30.01S
MONTEVIDEO     CLOUDY    54  34  47 SW10      29.99F
PIPESTONE      CLOUDY    54  28  37 S12       30.03F
REDWOOD FALLS  CLOUDY    53  35  50 S13       30.03S
TRACY          CLOUDY    57  33  40 S15G22    30.03S
WORTHINGTON    CLOUDY    55  32  41 S15G21    30.07F
$$

IAZ001>003-012>014-020>022-031-032-NEZ013-014-SDZ071-191600-
NORTHWEST IOWA

CITY           SKY/WX    TMP DP  RH WIND       PRES   REMARKS
CHEROKEE       SUNNY     54  39  57 S9        30.09S
DENISON        SUNNY     59  34  38 SE14      30.11S
ESTHERVILLE    CLOUDY    50  35  56 S12       30.09S
LE MARS        SUNNY     57  36  44 S8G16     30.06S
ORANGE CITY    SUNNY     57  36  44 SE8       30.07R
SHELDON        SUNNY     55  36  47 S8        30.06S
SIOUX CITY     SUNNY     53  42  66 SE9       30.07R
SPENCER        SUNNY     52  39  61 SE7       30.10R
STORM LAKE     SUNNY     55  32  41 S15G24    30.10R
$$

ABBREVIATIONS USED IN REMARKS
   TC - TEMPERATURE IN CELSIUS
  WCI - WIND CHILL INDEX
   HX - HEAT INDEX
  VSB - VISIBILITY




USA.gov is the U.S. government's official web portal to all federal, state and local government web resources and services.